PILOTS ONLINE: 415    ATC ONLINE: 50

KSOP - Moore County Airport

Location

City Pinehurst/Southern Pines
Country  United States
Latitude 35° 14' 14" N
Longitude 79° 23' 28" W
Elevation 455 ft
Type Small Airport

Runways

05/23 5503 ft / 150 ft
14/32 1999 ft / 100 ft

Weather

METAR
2014/07/30 12:55
KSOP 301255Z AUTO 05006KT 10SM BKN095 20/16 A3007 RMK AO1
TAF
No TAF available

Outbound flights

Inbound flights